Theta_e
322 322 322 322 323 323 324 324 325 326 326 327 327 327 327 328 326 331 326 343 351 364 367 359 359 354 350 345 342 341 324 317 320 322 325 331 328 334 336 331 334 335 333 335 337
321 322 322 322 322 323 324 324 324 325 326 326 326 327 328 328 325 324 349 365 362 364 357 350 343 341 340 336 337 329 321 321 329 329 327 329 329 330 329 329 329 332 335 336 337
321 321 321 321 322 322 323 323 324 324 325 325 326 327 327 327 325 327 361 368 366 365 352 350 339 335 331 332 326 327 323 327 329 331 333 331 330 332 328 326 329 329 331 334 336
320 320 320 321 321 321 322 322 323 323 323 324 325 327 328 327 315 335 363 368 367 356 349 341 333 330 327 327 328 323 330 331 332 333 333 331 332 331 333 332 334 333 334 335 334
319 320 320 320 320 320 321 321 321 321 322 324 325 328 325 323 320 347 363 363 353 348 342 337 327 327 327 326 328 327 329 332 334 334 333 335 331 330 331 335 336 335 335 334 334
319 320 319 319 319 320 320 320 320 320 322 324 326 328 326 315 329 348 347 346 343 342 339 338 330 331 327 328 327 329 331 331 334 333 334 332 331 333 332 336 334 334 334 334 334
319 318 318 319 318 319 319 319 319 320 322 325 328 330 319 318 325 332 341 340 342 341 336 338 334 330 329 327 334 331 326 323 327 333 328 325 320 327 332 335 333 332 334 335 336
317 317 318 318 318 318 318 317 318 320 324 327 331 327 317 325 327 325 327 327 334 340 337 337 334 329 327 333 331 321 324 314 325 330 328 321 311 323 332 332 331 332 333 334 336
317 317 317 317 318 317 317 317 319 323 327 330 326 322 315 325 320 323 326 324 326 328 330 333 331 325 326 322 320 320 311 316 322 329 331 330 320 327 333 332 331 332 332 333 335
317 317 316 317 317 316 315 316 327 324 329 329 327 319 320 316 321 321 324 323 322 324 324 324 324 320 320 319 313 311 313 315 316 322 323 323 328 333 332 331 331 331 332 333 333
316 316 316 316 316 315 317 327 323 320 323 317 318 314 317 320 323 321 323 321 321 320 316 322 317 313 317 321 323 317 316 315 321 323 321 320 322 332 334 331 331 331 331 332 333
317 316 316 316 315 314 315 322 320 322 315 321 319 320 320 322 315 318 322 316 315 312 317 316 313 319 321 320 322 319 318 318 321 323 321 319 319 330 335 334 332 331 331 332 333
316 316 316 315 314 316 324 322 326 325 315 317 317 315 316 318 314 315 319 317 313 311 312 311 315 320 319 317 316 318 315 316 316 321 321 319 317 320 324 334 335 334 335 334 335
316 316 315 313 315 326 323 325 327 325 311 311 312 316 317 317 312 319 321 317 313 309 312 312 317 316 316 315 317 313 319 318 317 315 310 318 308 317 318 321 332 334 334 334 336
316 315 313 311 319 324 327 327 326 323 302 313 314 323 319 314 315 314 321 317 311 311 311 309 311 312 313 314 318 314 319 317 317 314 313 313 309 317 323 318 327 332 334 336 339
314 313 312 318 322 327 327 327 323 308 301 310 314 313 312 313 313 316 315 318 317 311 312 311 315 314 313 315 316 317 315 315 315 313 306 311 310 311 318 323 323 327 331 336 338
312 311 312 325 325 328 328 323 310 304 314 309 310 312 312 310 311 311 311 309 307 304 305 309 310 313 314 310 313 312 309 303 302 303 303 312 310 312 320 323 323 325 331 336 338
310 308 318 326 329 328 324 316 306 308 309 313 311 311 310 312 312 310 310 307 311 309 306 304 303 310 313 310 308 308 309 303 298 299 303 312 307 313 323 323 327 331 334 336 336
308 327 327 332 331 327 319 309 309 310 312 311 311 309 309 310 311 310 309 311 312 314 307 305 304 313 313 314 312 308 304 310 304 306 302 305 310 319 321 320 320 323 327 327 333
323 329 329 328 330 325 317 305 311 314 314 313 308 311 308 309 309 310 311 314 313 316 316 311 304 311 312 314 313 310 311 303 305 298 297 302 306 307 319 318 322 321 322 329 330
325 325 326 330 330 322 314 313 313 316 316 313 310 310 309 309 310 310 311 314 315 314 316 313 309 308 312 309 307 308 306 306 306 304 300 299 303 314 320 321 321 322 326 329 330
329 320 327 330 319 318 315 316 308 316 315 314 312 312 311 311 310 310 309 314 317 316 310 315 311 306 308 314 315 313 308 308 303 301 303 303 303 315 319 320 322 324 325 329 333
324 320 327 326 314 316 315 314 316 316 314 315 313 313 315 311 308 311 312 316 317 315 313 315 309 302 304 310 314 311 313 313 309 307 305 300 303 317 318 319 323 323 324 334 336
322 316 321 321 319 314 314 313 312 317 314 315 315 316 314 312 315 311 311 314 317 316 326 318 309 304 300 304 309 307 310 312 311 304 304 304 307 312 314 316 323 326 331 331 335
319 313 312 312 314 313 314 313 311 310 316 316 313 314 312 309 311 310 313 314 316 320 315 313 306 308 309 310 310 309 308 310 309 309 306 308 309 313 315 316 322 325 328 330 333
314 312 314 313 313 311 306 310 310 312 312 311 312 313 313 308 309 308 311 312 311 314 311 314 307 309 305 308 309 307 308 308 309 310 309 310 310 317 318 321 323 324 328 333 335
320 321 317 310 312 310 310 312 311 311 311 312 312 311 309 309 310 311 312 310 309 307 307 308 306 304 299 306 307 303 308 309 310 312 310 306 312 319 317 320 323 327 332 335 338
Wind_Speed
17 16 17 18 18 18 18 19 19 19 18 18 19 17 18 19 25 8 10 9 7 21 10 13 18 18 14 14 8 15 4 11 15 13 9 5 9 12 12 11 13 15 18 22 24
18 17 17 17 18 19 19 19 19 19 20 19 18 18 17 17 10 16 5 10 20 19 10 17 16 12 8 11 11 2 10 12 19 15 10 11 9 10 9 11 10 7 24 25 25
18 19 18 17 17 18 19 20 20 19 19 20 19 19 17 16 10 11 5 8 15 16 15 20 15 14 15 8 13 13 12 10 14 12 11 14 10 10 12 13 12 22 26 26 21
19 19 19 19 18 18 19 20 19 20 20 20 19 20 18 7 8 7 9 9 11 13 13 17 15 13 9 16 7 9 11 12 10 10 6 10 8 12 6 9 16 22 24 25 25
19 19 19 19 19 18 18 19 20 20 20 21 19 16 12 9 17 9 10 9 11 12 14 16 17 18 11 6 9 8 3 12 10 9 9 7 4 8 7 4 18 23 22 23 21
19 19 19 19 19 19 19 18 19 21 20 20 17 15 8 15 8 12 9 10 13 15 14 18 16 16 3 5 14 11 3 8 11 9 10 10 7 4 10 10 18 23 21 21 20
20 20 20 20 20 20 20 19 20 21 21 18 13 7 11 17 3 5 10 11 13 18 17 19 16 14 17 9 14 28 27 39 19 10 9 24 23 15 11 12 17 18 19 19 19
21 21 21 21 21 21 20 20 22 21 19 15 10 7 9 6 5 8 11 12 12 16 17 17 17 17 18 15 13 21 15 9 22 13 15 21 17 23 11 13 16 18 18 18 18
21 21 21 22 20 20 21 22 23 19 14 13 7 9 16 4 11 13 13 14 14 15 15 14 15 16 22 17 13 18 14 16 16 17 19 14 17 29 15 14 15 17 18 17 17
21 20 21 20 19 19 23 24 9 13 8 10 11 10 16 14 11 6 9 11 13 14 15 17 15 14 17 17 6 11 7 21 26 9 3 10 17 19 17 16 15 17 17 16 17
21 21 20 19 18 16 15 4 6 7 12 12 6 17 3 3 3 9 13 12 14 16 17 17 16 15 22 9 22 28 30 33 32 6 5 7 2 22 20 17 17 17 17 17 17
20 20 18 18 18 13 8 8 9 8 10 20 13 10 9 5 11 13 17 15 16 18 19 18 19 20 21 20 25 20 25 30 4 8 7 8 8 14 20 17 18 18 18 18 18
21 20 18 17 18 8 11 7 8 8 7 12 10 13 12 12 14 14 15 15 17 18 20 21 21 21 21 18 22 16 12 13 12 8 10 10 2 12 4 9 17 17 18 17 18
21 19 17 17 5 6 4 3 7 4 7 10 9 6 6 9 16 18 8 14 15 19 19 20 20 23 23 19 16 16 16 15 5 11 11 11 14 9 17 18 15 17 19 18 18
20 18 15 6 12 7 7 7 7 6 5 4 10 6 3 11 9 16 8 10 15 16 15 16 20 21 17 20 15 17 17 19 20 9 16 18 15 17 18 22 30 14 17 20 18
20 18 15 6 7 11 7 8 7 7 1 7 4 9 12 11 12 9 9 12 13 16 18 18 21 13 12 15 12 16 20 20 18 14 13 17 18 7 9 16 10 5 24 19 23
20 16 9 8 6 9 8 8 8 7 3 4 1 6 9 10 9 7 12 13 14 11 14 13 16 19 9 16 18 16 15 12 14 13 13 19 17 14 15 11 17 30 31 23 21
19 16 11 9 10 8 7 9 11 5 8 4 5 5 6 4 5 6 10 11 16 18 17 14 13 20 16 18 17 18 16 12 15 14 16 18 17 7 11 4 18 35 26 21 19
24 6 7 9 12 4 8 9 6 11 6 10 7 10 7 5 9 5 7 14 8 14 11 15 17 17 7 10 11 13 16 19 22 19 14 15 21 9 15 21 41 3 16 13 17
6 10 11 1 6 7 8 5 5 6 8 8 13 5 13 8 7 6 7 7 7 7 9 13 14 14 14 5 9 16 16 15 12 17 17 15 19 15 12 14 11 8 8 14 8
6 7 6 6 6 8 10 6 3 4 8 8 9 7 7 7 8 13 8 9 7 11 14 13 13 13 13 14 10 13 14 14 17 14 12 11 12 15 12 4 8 6 13 9 9
9 6 6 4 9 6 5 8 2 4 3 5 5 8 9 8 10 9 5 9 7 11 13 14 10 11 18 15 11 16 16 16 11 17 15 15 15 18 7 3 4 6 7 10 10
7 4 5 7 8 2 6 5 7 7 2 4 4 1 8 9 4 10 8 6 4 9 12 13 9 11 11 6 19 12 15 20 19 16 14 13 12 12 9 7 8 7 4 10 9
7 5 5 4 4 10 3 3 4 6 9 6 10 7 9 8 8 4 11 4 6 3 7 4 13 17 14 21 14 10 16 18 20 10 13 14 15 15 15 14 12 8 10 8 6
4 6 6 7 8 12 9 10 9 5 5 2 6 6 7 9 13 12 11 9 6 12 4 9 13 15 17 17 18 20 17 21 20 18 16 19 18 16 16 16 8 10 9 9 7
7 6 9 11 9 6 4 9 6 8 4 10 2 10 8 9 12 14 16 14 14 12 13 14 13 13 15 18 19 18 17 19 21 23 23 20 20 16 13 12 6 5 7 10 10
8 8 7 9 10 7 6 12 7 8 10 7 10 10 10 11 13 15 16 17 18 17 16 16 13 12 14 17 17 15 16 17 18 17 21 18 20 17 5 6 4 4 5 6 8
Wind_Direction
343 342 340 337 336 334 332 329 328 326 323 321 319 318 319 320 307 219 252 115 186 176 213 191 226 236 224 238 257 243 326 72 80 101 130 147 121 72 83 128 149 176 148 153 152
340 339 338 337 334 331 329 326 325 324 321 319 318 317 321 325 288 267 132 148 156 169 204 234 236 229 256 294 263 43 61 27 106 117 131 137 128 116 135 151 136 163 134 145 155
339 336 335 335 333 329 326 324 323 321 319 318 318 316 319 316 273 242 174 177 175 185 251 293 294 272 284 234 20 354 103 82 67 110 110 111 143 160 163 156 167 134 142 152 163
337 334 332 331 331 328 323 321 320 316 316 315 317 317 312 261 252 85 172 195 188 213 254 277 267 261 352 42 25 358 79 93 114 112 139 115 156 160 178 122 139 144 153 159 173
333 330 329 328 328 326 322 318 316 312 311 312 315 321 320 237 255 126 155 163 201 217 250 276 294 294 105 139 38 268 194 107 117 156 112 141 60 112 107 137 140 148 161 167 176
330 328 328 328 326 322 318 314 311 308 307 307 311 315 254 261 86 141 151 164 219 217 252 263 271 310 271 199 196 236 61 102 166 133 140 94 7 223 133 178 147 156 169 174 182
329 328 327 324 322 319 316 312 307 303 302 300 304 286 266 257 330 181 182 212 220 242 244 267 303 309 306 170 216 71 34 351 316 175 63 65 341 315 146 184 154 168 173 178 185
329 327 325 321 319 316 311 307 302 298 295 292 289 248 267 13 293 226 232 240 239 239 262 279 300 306 284 180 240 78 106 167 272 259 120 89 268 271 173 174 166 171 177 182 186
328 325 322 318 316 312 308 301 294 290 276 279 250 235 264 142 230 235 235 243 249 233 250 270 274 282 286 272 57 43 320 277 275 240 166 159 210 246 171 182 174 177 180 185 185
327 323 320 316 312 314 310 287 281 302 220 246 260 263 244 233 218 216 226 246 260 265 238 243 255 264 263 261 138 131 322 295 274 148 208 212 165 162 177 179 180 183 181 188 186
326 322 318 312 310 320 325 258 203 195 233 234 247 231 112 335 336 229 255 235 241 257 252 243 244 251 261 284 142 166 185 226 253 135 228 319 238 165 173 182 184 184 188 185 193
325 322 316 311 309 314 287 264 36 334 298 217 254 271 305 321 283 213 212 222 222 240 247 249 248 246 268 277 160 174 230 233 45 16 238 273 291 128 166 189 190 191 186 188 189
323 320 316 312 313 274 241 16 321 318 261 193 217 225 229 215 250 249 197 223 237 229 245 251 250 251 245 282 278 287 288 304 331 335 287 321 216 193 8 219 200 190 189 192 186
324 322 318 317 295 228 236 355 321 340 273 139 190 154 202 231 240 256 178 229 224 252 230 250 262 264 275 244 279 287 296 301 0 301 293 281 288 101 157 255 193 203 186 190 193
325 323 319 312 313 281 9 316 338 257 251 144 123 116 218 228 26 196 207 254 258 248 250 263 246 261 268 272 285 287 286 292 303 277 297 290 286 140 129 105 262 211 200 191 185
327 323 326 184 230 276 313 313 256 235 90 126 155 196 198 202 242 111 209 233 270 254 276 259 272 298 284 282 295 282 280 289 291 284 276 276 278 188 151 175 142 198 241 225 185
323 316 299 311 317 351 306 264 235 268 184 97 94 218 242 157 208 211 199 220 232 223 245 246 250 267 264 286 278 275 264 262 254 255 255 257 254 268 152 174 180 193 219 223 186
317 313 229 249 290 296 285 259 268 14 37 108 267 235 319 359 195 211 221 220 216 257 273 286 243 220 203 227 259 272 257 255 260 260 269 274 272 343 134 12 295 192 208 173 180
312 228 245 232 222 280 274 257 2 10 3 331 216 244 151 177 297 210 250 19 31 12 340 312 288 308 251 216 216 252 259 281 287 285 273 283 292 202 94 72 294 310 162 164 174
307 281 236 252 211 242 269 324 44 350 295 277 313 354 331 89 272 258 137 75 14 40 327 296 297 297 310 277 243 273 291 288 268 262 271 287 293 300 145 189 236 194 118 131 143
249 240 96 234 240 247 267 56 18 77 324 326 350 322 300 342 315 325 70 101 57 338 326 301 291 290 273 250 270 250 224 244 270 281 291 286 257 249 43 80 347 64 65 98 134
291 276 110 251 267 244 41 12 3 19 164 317 280 325 330 354 312 326 350 59 56 344 311 339 321 300 300 309 271 232 259 272 247 237 260 279 291 302 6 315 116 294 67 78 19
279 341 140 265 285 255 94 168 306 338 12 341 324 302 2 309 339 287 301 54 52 317 21 350 310 318 296 33 349 354 348 332 284 294 288 283 273 289 342 29 17 358 22 108 99
277 292 150 226 310 303 11 272 251 133 296 326 331 318 285 285 266 255 295 286 145 265 94 310 277 280 287 309 319 317 304 305 315 290 289 281 295 314 331 355 17 66 71 55 51
267 20 9 307 38 345 336 335 302 286 160 301 299 240 336 328 315 308 326 315 335 133 263 268 273 277 296 310 309 302 294 287 288 294 297 301 306 306 315 329 47 38 22 27 13
344 347 346 303 299 270 230 286 309 329 12 294 302 313 9 314 312 317 323 315 307 311 302 278 283 298 292 283 270 269 269 272 282 286 285 280 281 284 286 291 60 9 27 24 359
5 339 294 295 286 292 16 8 353 357 300 271 334 328 307 340 343 314 301 292 285 282 280 287 288 291 288 294 297 286 282 274 281 257 264 275 279 327 255 288 352 326 69 41 346